Regional Weather Roundup
Issued by NWS

Home | Current Version | Previous Version | Text Only | Print | Product List | Glossary Off
Versions: 1 2 3 4 5 6 7 8 9 10 11 12 13 14 15 16 17 18 19 20 21 22 23 24 25 26 27 28 29 30 31 32 33 34 35 36 37 38 39 40 41 42 43 44 45 46 47 48 49 50

000
ASUS43 KIND 181159
RWRIN

WEATHER ROUNDUP FOR INDIANA
NATIONAL WEATHER SERVICE INDIANAPOLIS IN
700 AM EST MON DEC 18 2017

NOTE: "FAIR" INDICATES FEW OR NO CLOUDS BELOW 12,000 FEET WITH NO
SIGNIFICANT WEATHER AND/OR OBSTRUCTIONS TO VISIBILITY.

* - STATION DOES NOT REPORT WEATHER SUCH AS PRECIPITATION OR FOG.

+ - STATION NOT QUALITY CONTROLLED BY THE NATIONAL WEATHER SERVICE.
    USE DATA WITH CAUTION...ESPECIALLY DEWPOINT AND RELATIVE
    HUMIDITY OBSERVATIONS.

INZ001>003-010>013-019-020-181300-
NORTHWEST INDIANA

CITY           SKY/WX    TMP DP  RH WIND       PRES   REMARKS
GARY /AIRPORT/ CLOUDY    43  41  93 SW6       29.95S FOG
KNOX *+        CLOUDY    41  41 100 SW9       29.96S
MONTICELLO +   DRIZZLE   41  40  96 SW9       29.99R
6HR MIN TEMP:  40; 6HR MAX TEMP:  41;


$$

LMZ046-743>745-181300-
SOUTHERN LAKE MICHIGAN

STATION/POSITION TIME  TEMP    WIND        PRES    WAVE
                       AIR SEA DIR/SP/G            HT
                 (UTC) (F)     (DEG/KT/KT) (MB)    (FT)
BURNS HARBOR     1140   43     220/ 12/ 15 1014.6R
MICHIGAN CITY    1130   42     190/ 15/ 16   N/A

$$

INZ004-005-014>016-021>024-181300-
NORTH CENTRAL INDIANA

CITY           SKY/WX    TMP DP  RH WIND       PRES   REMARKS
ELKHART        DRIZZLE   39  37  93 SW6       29.95  WCI  35
GOSHEN         CLOUDY    40  38  93 SW13      29.95F FOG     WCI  32
6HR MIN TEMP:  38; 6HR MAX TEMP:  40; 6HR PCP: TRACE;

PERU/GRISSOM   CLOUDY    41  41 100 SW13      29.99R FOG
6HR MIN TEMP:  40; 6HR MAX TEMP:  41; 6HR PCP: TRACE;

SOUTH BEND     CLOUDY    38  38 100 SW10      29.95S FOG     WCI  31
6HR MIN TEMP:  37; 6HR MAX TEMP:  39; 6HR PCP: TRACE;

WARSAW +       RAIN      39  39 100 SW6       29.97S WCI  35

$$

INZ006>009-017-018-025>027-181300-
NORTHEAST INDIANA

CITY           SKY/WX    TMP DP  RH WIND       PRES   REMARKS
FORT WAYNE     LGT RAIN  39  39 100 SW10      29.99S FOG     WCI  32
6HR MIN TEMP:  38; 6HR MAX TEMP:  39; 6HR PCP: TRACE;

KENDALLVILLE + LGT RAIN  38  38 100 SW8       29.96S WCI  32

$$

INZ028-029-035-036-043>045-051>053-181300-
WEST CENTRAL INDIANA

CITY           SKY/WX    TMP DP  RH WIND       PRES   REMARKS
LAFAYETTE      CLOUDY    42  42 100 SW8       30.01R FOG
6HR MIN TEMP:  41; 6HR MAX TEMP:  42;

TERRE HAUTE    CLOUDY    44  41  89 SW10      30.06R
6HR MIN TEMP:  42; 6HR MAX TEMP:  44; 6HR PCP: TRACE;


$$

INZ030>032-037>040-046>048-054>057-064-065-181300-
CENTRAL INDIANA

CITY           SKY/WX    TMP DP  RH WIND       PRES   REMARKS
COLUMBUS       LGT RAIN  41  39  93 S6        30.07
INDIANAPOLIS   DRIZZLE   42  41  96 SW9       30.05R
6HR MIN TEMP:  41; 6HR MAX TEMP:  42; 6HR PCP: TRACE;

-EAGLE CREEK   CLOUDY    43  40  89 SW8       30.03R FOG
6HR MIN TEMP:  41; 6HR MAX TEMP:  43;

KOKOMO +       CLOUDY    41  40  96 SW12      30.01R FOG
6HR MIN TEMP:  40; 6HR MAX TEMP:  41; 6HR PCP: TRACE;

MT COMFORT *+  CLOUDY    39  39 100 S6        30.04S WCI  35
SHELBYVILLE    CLOUDY    41  39  93 S9        30.05S FOG
6HR MIN TEMP:  41; 6HR MAX TEMP:  41;


$$

INZ033-034-041-042-049-050-058-059-181300-
EAST CENTRAL INDIANA

CITY           SKY/WX    TMP DP  RH WIND       PRES   REMARKS
MUNCIE         CLOUDY    41  39  93 SW10      30.01F FOG
6HR MIN TEMP:  41; 6HR MAX TEMP:  42;

RICHMOND +     FOG       36  36 100 S7        30.05S VSB 1/4 WCI  30

$$

INZ060-061-067>069-081>083-085>088-181300-
SOUTHWEST INDIANA

CITY           SKY/WX    TMP DP  RH WIND       PRES   REMARKS
EVANSVILLE     LGT RAIN  44  44 100 S6        30.12S FOG
6HR MIN TEMP:  44; 6HR MAX TEMP:  44; 6HR PCP:  0.01;


$$

INZ062-063-066-070>080-084-089>092-181300-
SOUTH CENTRAL AND SOUTHEAST INDIANA

CITY           SKY/WX    TMP DP  RH WIND       PRES   REMARKS
BLOOMINGTON    CLOUDY    43  41  93 SW9       30.06S FOG
6HR MIN TEMP:  42; 6HR MAX TEMP:  43; 6HR PCP: TRACE;

MADISON *+     CLOUDY    43  41  93 SW7       30.11S
SEYMOUR +      CLOUDY    43  43 100 S6        30.09R FOG

$$





USA.gov is the U.S. government's official web portal to all federal, state and local government web resources and services.